RAMSAT (48850 NORAD) Tracking and Keplerian Element Data

This shows tracking and keplerian element data for the satellite.

Feedback or suggestion? Click here.




ElementValue
Catalog48850
NameRAMSAT
Epoch Orbit7572
Epoch Day284.53922697
Epoch Year2022
RAAN73.142
Inclination51.6145
Eccentricity0.0006787
Argument of Perigee287.2983
Mean Anonmoly72.7303
Mean Motion16.4588728
Decay Rate0.13761768
L11 48850U 98067SL 22284.53922697 .13761768 12596-4 32350-3 0 9998
L22 48850 51.6145 73.1420 0006787 287.2983 72.7303 16.45887280 75725



Live tracking and technical data element details for RAMSAT (NORAD 48850). RAMSAT can be tracked NOW for your location showing map with azimuth and elevation plus other details from your city location.







IsCatalogInMostPopularTable: catalog: 48850, numindb: 109
Update: records affected: 1



GetName: 48850 RAMSAT

Hit Count: updated at: Thu, 23 Jan 2025 16:58:26 GMT